Keystone Airpark, Keystone He, FL

10:00 AM EDT on March 23, 2017 (GMT -0400)
Keystone Airpark, Keystone He

Weather History for K42J - May, 2014

Change the Weather History Date:

Friday, May 16, 2014

  Actual Average (KGNV) Record (KGNV)
Temperature  
Mean Temperature 66 °F -  
Max Temperature 78 °F 87 °F 98 °F (1896)
Min Temperature 53 °F 62 °F 47 °F (1917)
Growing Degree Days 16 (Base 50)    
Moisture  
Dew Point 49 °F    
Average Humidity 59    
Maximum Humidity 94    
Minimum Humidity 28    
Precipitation  
Precipitation 0.00 in - - ()
Sea Level Pressure  
Sea Level Pressure 30.08 in    
Wind  
Wind Speed 10 mph (NW)    
Max Wind Speed 16 mph    
Max Gust Speed 26 mph    
Visibility 10 miles    
Events      
Averages and records for this station are not official NWS values.
T = Trace of Precipitation, MM = Missing Value Source: NWS Daily Summary

Daily Weather History Graph

Daily Weather History Graph

Search for Another Location

Airport or City:

Trip Planner

Search our weather history database for the weather conditions in past years. The results will help you decide how hot, cold, wet, or windy it might be!

Date:

Astronomy

May. 16, 2014 Rise Set
Actual Time 6:34 AM EDT 8:14 PM EDT
Civil Twilight 6:08 AM EDT 8:41 PM EDT
Nautical Twilight 5:36 AM EDT 9:12 PM EDT
Astronomical Twilight 5:03 AM EDT 9:45 PM EDT
Moon 10:20 PM EDT (5/16) 8:15 AM EDT (5/16)
Length of Visible Light 14h 32m
Length of Day
13h 40m
Waning Gibbous, 95% of the Moon is Illuminated
May 16
Waning Gibbous
May 21
Last Quarter
May 28
New
Jun 5
First Quarter
Jun 13
Full

Hourly Weather History & Observations

Time (EDT) Temp. Dew Point Humidity Pressure Visibility Wind Dir Wind Speed Gust Speed Precip Events Conditions
12:15 AM 66.2 °F 64.4 °F 94% 30.02 in 10.0 mi NW 16.1 mph 19.6 mph N/A   Overcast
12:35 AM 66.2 °F 62.6 °F 88% 30.02 in 10.0 mi NW 16.1 mph 20.7 mph N/A   Overcast
12:55 AM 64.4 °F 60.8 °F 88% 30.02 in 10.0 mi NNW 11.5 mph 26.5 mph N/A   Overcast
1:15 AM 64.4 °F 59.0 °F 83% 30.02 in 10.0 mi NNW 10.4 mph - N/A   Overcast
1:35 AM 64.4 °F 57.2 °F 77% 30.02 in 10.0 mi NW 10.4 mph - N/A   Overcast
1:55 AM 64.4 °F 57.2 °F 77% 30.02 in 10.0 mi NW 9.2 mph - N/A   Overcast
2:15 AM 62.6 °F 55.4 °F 77% 30.02 in 10.0 mi NW 9.2 mph 16.1 mph N/A   Overcast
2:35 AM 62.6 °F 55.4 °F 77% 30.02 in 10.0 mi NW 9.2 mph - N/A   Overcast
2:55 AM 62.6 °F 55.4 °F 77% 30.02 in 10.0 mi NW 10.4 mph 19.6 mph N/A   Overcast
3:15 AM 60.8 °F 53.6 °F 77% 30.02 in 10.0 mi NW 12.7 mph 16.1 mph N/A   Mostly Cloudy
3:35 AM 59.0 °F 51.8 °F 77% 30.02 in 10.0 mi NW 9.2 mph - N/A   Clear
3:55 AM 59.0 °F 53.6 °F 82% 30.03 in 10.0 mi NW 9.2 mph - N/A   Scattered Clouds
4:15 AM 57.2 °F 53.6 °F 88% 30.03 in 10.0 mi NW 9.2 mph - N/A   Partly Cloudy
4:35 AM 57.2 °F 53.6 °F 88% 30.03 in 10.0 mi NW 9.2 mph - N/A   Clear
4:55 AM 57.2 °F 53.6 °F 88% 30.04 in 10.0 mi NW 5.8 mph - N/A   Clear
5:15 AM 55.4 °F 51.8 °F 88% 30.04 in 10.0 mi NW 8.1 mph - N/A   Clear
5:35 AM 55.4 °F 51.8 °F 88% 30.05 in 10.0 mi NW 6.9 mph - N/A   Clear
5:55 AM 55.4 °F 51.8 °F 88% 30.06 in 10.0 mi NW 6.9 mph - N/A   Clear
6:15 AM 53.6 °F 51.8 °F 94% 30.06 in 10.0 mi NW 5.8 mph - N/A   Clear
6:35 AM 53.6 °F 50.0 °F 88% 30.07 in 10.0 mi NW 5.8 mph - N/A   Clear
6:55 AM 53.6 °F 50.0 °F 88% 30.08 in 10.0 mi NW 5.8 mph - N/A   Clear
7:15 AM 53.6 °F 51.8 °F 94% 30.09 in 10.0 mi NW 6.9 mph - N/A   Clear
7:35 AM 55.4 °F 51.8 °F 88% 30.09 in 10.0 mi NW 4.6 mph - N/A   Clear
7:55 AM 55.4 °F 51.8 °F 88% 30.09 in 10.0 mi NW 9.2 mph - N/A   Clear
8:15 AM 57.2 °F 50.0 °F 77% 30.10 in 10.0 mi NNW 8.1 mph - N/A   Clear
8:35 AM 59.0 °F 48.2 °F 67% 30.10 in 10.0 mi NNW 9.2 mph - N/A   Clear
8:55 AM 60.8 °F 46.4 °F 59% 30.10 in 10.0 mi North 12.7 mph - N/A   Clear
9:15 AM 60.8 °F 46.4 °F 59% 30.11 in 10.0 mi NNW 11.5 mph - N/A   Clear
9:35 AM 62.6 °F 46.4 °F 55% 30.11 in 10.0 mi NNW 9.2 mph 16.1 mph N/A   Clear
9:55 AM 62.6 °F 44.6 °F 52% 30.11 in 10.0 mi North 9.2 mph - N/A   Clear
10:15 AM 64.4 °F 44.6 °F 49% 30.11 in 10.0 mi NNW 10.4 mph 17.3 mph N/A   Clear
10:35 AM 64.4 °F 42.8 °F 45% 30.12 in 10.0 mi NNW 9.2 mph - N/A   Clear
10:55 AM 66.2 °F 42.8 °F 43% 30.12 in 10.0 mi WNW 9.2 mph - N/A   Clear
11:15 AM 66.2 °F 42.8 °F 43% 30.13 in 10.0 mi NW 13.8 mph 18.4 mph N/A   Clear
11:35 AM 66.2 °F 42.8 °F 43% 30.13 in 10.0 mi NNW 11.5 mph 17.3 mph N/A   Clear
11:55 AM 69.8 °F 42.8 °F 38% 30.12 in 10.0 mi NW 11.5 mph - N/A   Clear
12:15 PM 69.8 °F 42.8 °F 38% 30.12 in 10.0 mi NW 11.5 mph 16.1 mph N/A   Clear
12:35 PM 71.6 °F 42.8 °F 35% 30.11 in 10.0 mi NNW 12.7 mph 18.4 mph N/A   Clear
12:55 PM 71.6 °F 42.8 °F 35% 30.11 in 10.0 mi WNW 10.4 mph 20.7 mph N/A   Partly Cloudy
1:15 PM 73.4 °F 39.2 °F 29% 30.11 in 10.0 mi NNW 15.0 mph 19.6 mph N/A   Partly Cloudy
1:35 PM 73.4 °F 41.0 °F 31% 30.10 in 10.0 mi NW 13.8 mph 17.3 mph N/A   Partly Cloudy
1:55 PM 73.4 °F 41.0 °F 31% 30.10 in 10.0 mi NW 12.7 mph 19.6 mph N/A   Clear
2:15 PM 75.2 °F 42.8 °F 31% 30.10 in 10.0 mi NW 13.8 mph 24.2 mph N/A   Partly Cloudy
2:35 PM 75.2 °F 42.8 °F 31% 30.10 in 10.0 mi NW 16.1 mph 19.6 mph N/A   Clear
2:55 PM 75.2 °F 41.0 °F 29% 30.09 in 10.0 mi NW 13.8 mph - N/A   Clear
3:15 PM 75.2 °F 42.8 °F 31% 30.09 in 10.0 mi NNW 12.7 mph 18.4 mph N/A   Clear
3:35 PM 75.2 °F 42.8 °F 31% 30.08 in 10.0 mi NW 11.5 mph 19.6 mph N/A   Clear
3:55 PM 77.0 °F 42.8 °F 29% 30.08 in 10.0 mi NNW 10.4 mph - N/A   Clear
4:15 PM 77.0 °F 42.8 °F 29% 30.07 in 10.0 mi NW 10.4 mph 18.4 mph N/A   Clear
4:35 PM 77.0 °F 42.8 °F 29% 30.06 in 10.0 mi NW 10.4 mph 18.4 mph N/A   Clear
4:55 PM 77.0 °F 42.8 °F 29% 30.06 in 10.0 mi NW 10.4 mph - N/A   Clear
5:15 PM 78.8 °F 42.8 °F 28% 30.06 in 10.0 mi NW 11.5 mph - N/A   Clear
5:35 PM 77.0 °F 42.8 °F 29% 30.06 in 10.0 mi NW 11.5 mph - N/A   Clear
5:55 PM 77.0 °F 42.8 °F 29% 30.06 in 10.0 mi NW 10.4 mph 17.3 mph N/A   Clear
6:15 PM 77.0 °F 42.8 °F 29% 30.06 in 10.0 mi NW 9.2 mph - N/A   Clear
6:35 PM 75.2 °F 42.8 °F 31% 30.06 in 10.0 mi NW 11.5 mph 16.1 mph N/A   Clear
6:55 PM 75.2 °F 42.8 °F 31% 30.06 in 10.0 mi NW 10.4 mph - N/A   Clear
7:15 PM 75.2 °F 44.6 °F 34% 30.07 in 10.0 mi NW 6.9 mph - N/A   Clear
7:35 PM 73.4 °F 44.6 °F 36% 30.07 in 10.0 mi NW 6.9 mph - N/A   Clear
7:55 PM 71.6 °F 46.4 °F 41% 30.08 in 10.0 mi NW 4.6 mph - N/A   Clear
8:15 PM 69.8 °F 48.2 °F 46% 30.09 in 10.0 mi NW 3.5 mph - N/A   Clear
8:35 PM 68.0 °F 48.2 °F 49% 30.10 in 10.0 mi Calm Calm - N/A   Clear
8:55 PM 64.4 °F 51.8 °F 64% 30.11 in 10.0 mi Calm Calm - N/A   Clear
9:15 PM 62.6 °F 51.8 °F 68% 30.11 in 10.0 mi Calm Calm - N/A   Clear
9:35 PM 60.8 °F 51.8 °F 72% 30.11 in 10.0 mi Calm Calm - N/A   Clear
9:55 PM 59.0 °F 53.6 °F 82% 30.12 in 10.0 mi Calm Calm - N/A   Clear
10:15 PM 59.0 °F 51.8 °F 77% 30.13 in 10.0 mi Calm Calm - N/A   Clear
10:35 PM 59.0 °F 51.8 °F 77% 30.13 in 10.0 mi Calm Calm - N/A   Clear
10:55 PM 57.2 °F 53.6 °F 88% 30.13 in 10.0 mi Calm Calm - N/A   Clear
11:35 PM 59.0 °F 51.8 °F 77% 30.15 in 10.0 mi Calm Calm - N/A   Clear
11:55 PM 57.2 °F 53.6 °F 88% 30.15 in 10.0 mi Calm Calm - N/A   Clear